contact:dominique.lefevre@mio.osupytheas.fr, maurice.libes@osupytheas.fr, didier.mallarino@osupytheas.fr
Project:EMSO http://www.emso-fr.org/EMSO-France
Depth: 2436.0 m
Title:EMSO Ligure Ouest : Data MII capteur AQUADOPP
Date,Latitude,Longitude,X_East,Y_North,Z_Up,Amplitude_X,Amplitude_Y,Amplitude_Z,Batterie,SoundSpeed,Heading,Pitch,Roll,Pressure,TIS,Speed,Direction
, degrees North, degrees East, m.s-1, m.s-1,m.s-1, 1, 1, 1, Volt, m.s-1, degree, degree, degree, dbar, degree_C, m.s-1, degree
2020-03-28T00:04:03,42.805,6.029,0.021,0.025,-0.042,105.0,114.0,102.0,13.4,1505.2,324.1,-0.7,1.8,2470.296,13.3,0.032,40.0
2020-03-28T00:07:03,42.805,6.029,0.011,0.004,-0.028,104.0,114.0,100.0,13.4,1505.3,327.2,-0.7,1.9,2470.256,13.31,0.011,70.0
2020-03-28T00:10:03,42.805,6.029,0.0,0.025,-0.06,104.0,114.0,101.0,13.4,1505.3,324.9,-0.7,1.8,2470.322,13.32,0.025,0.0
2020-03-28T00:13:03,42.805,6.029,0.012,0.026,-0.01,106.0,113.0,102.0,13.3,1505.3,328.4,-0.7,1.9,2470.291,13.32,0.028,24.8
2020-03-28T00:16:03,42.805,6.029,0.009,0.017,-0.046,104.0,113.0,102.0,13.4,1505.3,325.1,-0.7,1.8,2470.298,13.32,0.019,27.9
2020-03-28T00:19:03,42.805,6.029,0.02,0.025,-0.063,106.0,115.0,101.0,13.4,1505.3,323.5,-0.7,1.8,2470.293,13.32,0.032,38.7
2020-03-28T00:22:03,42.805,6.029,0.022,0.037,-0.018,104.0,115.0,101.0,13.4,1505.3,324.7,-0.7,1.9,2470.265,13.32,0.043,30.7
2020-03-28T00:25:03,42.805,6.029,0.032,0.025,-0.02,106.0,114.0,101.0,13.4,1505.3,326.0,-0.7,1.8,2470.25,13.32,0.04,52.0
2020-03-28T00:28:03,42.805,6.029,0.006,0.011,-0.053,104.0,116.0,101.0,13.3,1505.3,326.4,-0.7,1.8,2470.271,13.32,0.012,28.6
2020-03-28T00:31:03,42.805,6.029,0.033,0.003,-0.027,104.0,115.0,102.0,13.4,1505.3,328.1,-0.7,1.8,2470.244,13.32,0.033,84.8
2020-03-28T00:34:03,42.805,6.029,0.013,0.029,-0.044,104.0,114.0,100.0,13.4,1505.3,323.3,-0.7,1.8,2470.253,13.32,0.031,24.1
2020-03-28T00:37:03,42.805,6.029,-0.003,0.019,-0.066,104.0,113.0,101.0,13.3,1505.3,322.8,-0.7,1.8,2470.251,13.32,0.019,351.0
2020-03-28T00:43:03,42.805,6.029,0.016,0.027,-0.037,104.0,115.0,102.0,13.4,1505.2,323.4,-0.7,1.8,2470.28,13.3,0.031,30.7
2020-03-28T00:46:03,42.805,6.029,0.018,0.047,-0.003,105.0,115.0,103.0,13.4,1505.3,326.8,-0.7,1.8,2470.251,13.31,0.05,21.0
2020-03-28T00:49:03,42.805,6.029,0.039,0.045,-0.018,105.0,115.0,100.0,13.3,1505.3,324.8,-0.7,1.8,2470.273,13.32,0.059,40.9
2020-03-28T00:52:03,42.805,6.029,0.02,0.029,-0.053,104.0,115.0,102.0,13.4,1505.3,323.8,-0.7,1.8,2470.268,13.32,0.035,34.6
2020-03-28T00:55:03,42.805,6.029,0.025,0.034,-0.05,105.0,116.0,104.0,13.4,1505.3,324.0,-0.7,1.8,2470.247,13.32,0.042,36.3
2020-03-28T00:58:03,42.805,6.029,0.025,0.022,-0.043,104.0,115.0,102.0,13.4,1505.3,325.9,-0.7,1.8,2470.264,13.32,0.033,48.7
2020-03-28T01:04:03,42.805,6.029,0.034,0.035,-0.03,104.0,114.0,102.0,13.4,1505.2,324.2,-0.8,1.8,2470.251,13.3,0.048,44.2
2020-03-28T01:07:03,42.805,6.029,0.051,0.034,-0.024,104.0,116.0,101.0,13.3,1505.3,326.5,-0.7,1.8,2470.261,13.31,0.061,56.3
2020-03-28T01:10:03,42.805,6.029,0.015,0.041,-0.022,105.0,116.0,101.0,13.4,1505.3,326.2,-0.7,1.8,2470.287,13.32,0.043,20.1
2020-03-28T01:13:03,42.805,6.029,0.001,0.034,-0.033,104.0,116.0,101.0,13.4,1505.3,325.4,-0.7,1.9,2470.295,13.32,0.034,1.7
2020-03-28T01:16:03,42.805,6.029,0.019,0.01,-0.018,104.0,117.0,102.0,13.3,1505.3,323.0,-0.7,1.8,2470.285,13.32,0.021,62.2
2020-03-28T01:22:03,42.805,6.029,0.014,0.033,-0.044,105.0,115.0,101.0,13.3,1505.2,326.0,-0.7,1.8,2470.294,13.3,0.035,23.0
2020-03-28T01:25:03,42.805,6.029,0.02,0.026,-0.053,105.0,116.0,101.0,13.4,1505.3,327.7,-0.7,1.8,2470.295,13.31,0.032,37.6
2020-03-28T01:28:03,42.805,6.029,0.018,0.023,-0.052,105.0,116.0,101.0,13.3,1505.3,327.2,-0.7,1.8,2470.239,13.31,0.029,38.0
2020-03-28T01:31:03,42.805,6.029,0.012,0.02,-0.035,103.0,116.0,103.0,13.4,1505.3,327.3,-0.7,1.9,2470.261,13.32,0.023,31.0
2020-03-28T01:34:03,42.805,6.029,0.016,0.041,-0.024,105.0,117.0,101.0,13.4,1505.3,326.2,-0.7,1.8,2470.255,13.32,0.044,21.3
2020-03-28T01:37:03,42.805,6.029,0.032,0.039,-0.018,105.0,115.0,101.0,13.4,1505.3,324.6,-0.7,1.8,2470.241,13.32,0.05,39.4
2020-03-28T01:40:03,42.805,6.029,0.024,0.024,-0.042,104.0,117.0,101.0,13.4,1505.3,323.2,-0.7,1.8,2470.233,13.32,0.033,45.0
2020-03-28T01:43:03,42.805,6.029,0.025,0.018,-0.027,104.0,117.0,102.0,13.3,1505.3,323.3,-0.7,1.9,2470.264,13.32,0.03,54.2
2020-03-28T01:46:03,42.805,6.029,0.035,0.015,-0.018,104.0,116.0,100.0,13.4,1505.3,326.6,-0.7,1.9,2470.233,13.32,0.038,66.8
2020-03-28T01:49:03,42.805,6.029,0.023,0.033,-0.046,104.0,118.0,101.0,13.4,1505.3,327.2,-0.7,1.8,2470.215,13.32,0.04,34.9
2020-03-28T01:52:03,42.805,6.029,0.008,0.031,-0.021,104.0,117.0,102.0,13.4,1505.3,326.8,-0.7,1.8,2470.257,13.32,0.032,14.5
2020-03-28T01:55:03,42.805,6.029,0.044,0.027,-0.053,104.0,117.0,104.0,13.3,1505.3,325.2,-0.7,1.8,2470.217,13.32,0.051,58.5
2020-03-28T01:58:03,42.805,6.029,0.016,0.049,-0.031,105.0,118.0,100.0,13.4,1505.3,325.7,-0.7,1.8,2470.207,13.32,0.051,18.1
2020-03-28T02:04:03,42.805,6.029,0.027,0.018,-0.017,105.0,117.0,100.0,13.3,1505.2,323.2,-0.7,1.8,2470.268,13.3,0.032,56.3
2020-03-28T02:07:03,42.805,6.029,0.011,0.033,-0.04,105.0,118.0,102.0,13.4,1505.3,325.7,-0.7,1.8,2470.272,13.31,0.034,18.4
2020-03-28T02:10:03,42.805,6.029,0.028,0.028,-0.014,104.0,117.0,101.0,13.4,1505.3,327.4,-0.7,1.8,2470.264,13.32,0.039,45.0
2020-03-28T02:13:03,42.805,6.029,0.007,0.042,-0.053,105.0,118.0,101.0,13.4,1505.3,324.3,-0.7,1.8,2470.258,13.32,0.042,9.5
2020-03-28T02:16:03,42.805,6.029,0.047,0.037,-0.012,104.0,117.0,102.0,13.3,1505.3,326.3,-0.7,1.8,2470.26,13.32,0.059,51.8
2020-03-28T02:19:03,42.805,6.029,0.029,0.022,-0.038,103.0,118.0,103.0,13.4,1505.3,326.2,-0.7,1.8,2470.241,13.32,0.036,52.8
2020-03-28T02:22:03,42.805,6.029,0.032,0.033,-0.008,104.0,116.0,100.0,13.4,1505.3,327.6,-0.7,1.9,2470.235,13.32,0.045,44.1
2020-03-28T02:25:03,42.805,6.029,0.007,0.031,-0.035,104.0,117.0,102.0,13.4,1505.3,324.6,-0.7,1.8,2470.229,13.32,0.031,12.7
2020-03-28T02:28:03,42.805,6.029,0.032,0.033,-0.027,105.0,120.0,101.0,13.4,1505.3,326.5,-0.7,1.8,2470.216,13.32,0.045,44.1
2020-03-28T02:31:03,42.805,6.029,0.034,0.028,-0.036,104.0,117.0,103.0,13.4,1505.3,325.6,-0.7,1.9,2470.224,13.32,0.044,50.5
2020-03-28T02:34:03,42.805,6.029,0.03,0.037,-0.03,104.0,118.0,102.0,13.4,1505.3,324.9,-0.7,1.8,2470.255,13.32,0.047,39.0
2020-03-28T02:37:03,42.805,6.029,0.021,0.028,-0.036,106.0,118.0,101.0,13.4,1505.3,325.1,-0.7,1.8,2470.245,13.32,0.035,36.9
2020-03-28T02:40:03,42.805,6.029,0.021,0.002,-0.026,104.0,117.0,103.0,13.4,1505.3,327.8,-0.7,1.8,2470.205,13.32,0.021,84.6
2020-03-28T02:43:03,42.805,6.029,0.029,0.026,-0.032,103.0,117.0,101.0,13.4,1505.3,326.6,-0.7,1.8,2470.207,13.32,0.038,48.1
2020-03-28T02:46:03,42.805,6.029,0.048,0.002,-0.029,102.0,117.0,102.0,13.4,1505.3,327.7,-0.7,1.8,2470.2,13.32,0.048,87.6
2020-03-28T02:49:03,42.805,6.029,0.025,0.042,-0.004,103.0,114.0,102.0,13.3,1505.3,326.2,-0.7,1.8,2470.214,13.32,0.048,30.8
2020-03-28T02:52:03,42.805,6.029,0.017,0.007,-0.03,105.0,116.0,101.0,13.4,1505.3,324.8,-0.7,1.8,2470.214,13.32,0.018,67.6
2020-03-28T02:55:03,42.805,6.029,0.034,0.036,-0.042,105.0,113.0,101.0,13.4,1505.3,323.2,-0.7,1.9,2470.178,13.32,0.049,43.4
2020-03-28T02:58:03,42.805,6.029,0.03,0.036,-0.033,104.0,117.0,101.0,13.3,1505.3,326.9,-0.7,1.8,2470.157,13.32,0.046,39.8
2020-03-28T03:04:03,42.805,6.029,0.027,0.029,-0.015,105.0,117.0,102.0,13.4,1505.2,328.1,-0.8,1.8,2470.227,13.3,0.039,43.0
2020-03-28T03:07:03,42.805,6.029,0.045,0.039,-0.011,104.0,116.0,102.0,13.4,1505.3,325.9,-0.7,1.8,2470.221,13.31,0.059,49.1
2020-03-28T03:10:03,42.805,6.029,0.024,0.015,-0.034,105.0,117.0,101.0,13.3,1505.3,326.2,-0.7,1.8,2470.178,13.31,0.028,58.0
2020-03-28T03:13:03,42.805,6.029,0.026,0.03,-0.014,104.0,117.0,101.0,13.4,1505.3,327.0,-0.7,1.8,2470.231,13.32,0.039,40.9
2020-03-28T03:16:03,42.805,6.029,0.052,0.021,-0.043,105.0,115.0,102.0,13.3,1505.3,328.0,-0.7,1.8,2470.219,13.32,0.056,68.0
2020-03-28T03:19:03,42.805,6.029,0.011,0.024,-0.049,104.0,117.0,101.0,13.4,1505.3,324.5,-0.7,1.8,2470.276,13.32,0.026,24.6
2020-03-28T03:22:03,42.805,6.029,0.036,0.023,-0.012,104.0,116.0,103.0,13.4,1505.3,326.0,-0.7,1.8,2470.225,13.32,0.042,57.4
2020-03-28T03:25:03,42.805,6.029,0.041,0.024,-0.03,104.0,116.0,101.0,13.4,1505.3,326.5,-0.7,1.8,2470.196,13.32,0.047,59.7
2020-03-28T03:28:03,42.805,6.029,0.043,0.022,-0.04,104.0,117.0,102.0,13.4,1505.3,327.6,-0.7,1.8,2470.2,13.32,0.048,62.9
2020-03-28T03:31:03,42.805,6.029,0.014,0.02,-0.065,105.0,118.0,101.0,13.4,1505.3,324.2,-0.7,1.8,2470.211,13.32,0.024,35.0
2020-03-28T03:34:03,42.805,6.029,0.012,0.035,-0.033,104.0,116.0,102.0,13.4,1505.3,324.8,-0.7,1.8,2470.232,13.32,0.037,18.9
2020-03-28T03:37:03,42.805,6.029,0.054,0.04,-0.051,105.0,117.0,101.0,13.4,1505.3,327.4,-0.7,1.8,2470.183,13.32,0.067,53.5
2020-03-28T03:40:03,42.805,6.029,0.027,0.014,-0.036,103.0,115.0,101.0,13.3,1505.3,326.7,-0.7,1.8,2470.195,13.32,0.03,62.6
2020-03-28T03:43:03,42.805,6.029,0.011,0.016,-0.031,106.0,117.0,101.0,13.4,1505.3,323.5,-0.7,1.8,2470.202,13.32,0.019,34.5
2020-03-28T03:46:03,42.805,6.029,0.017,0.009,-0.027,105.0,115.0,101.0,13.4,1505.3,328.2,-0.7,1.8,2470.186,13.32,0.019,62.1
2020-03-28T03:49:03,42.805,6.029,0.015,0.016,-0.024,104.0,116.0,101.0,13.4,1505.3,326.5,-0.7,1.9,2470.148,13.32,0.021,43.1
2020-03-28T03:52:03,42.805,6.029,0.035,0.018,-0.018,105.0,115.0,102.0,13.4,1505.3,325.4,-0.7,1.8,2470.193,13.32,0.039,62.8
2020-03-28T03:55:03,42.805,6.029,0.064,0.025,-0.014,104.0,114.0,102.0,13.4,1505.3,327.5,-0.7,1.8,2470.192,13.32,0.068,68.7
2020-03-28T03:58:03,42.805,6.029,0.041,0.028,-0.05,106.0,115.0,101.0,13.3,1505.3,326.3,-0.7,1.8,2470.205,13.32,0.049,55.7
2020-03-28T04:04:03,42.805,6.029,0.022,0.016,-0.059,104.0,115.0,101.0,13.3,1505.2,325.5,-0.8,1.8,2470.257,13.3,0.027,54.0
2020-03-28T04:07:03,42.805,6.029,0.02,0.019,-0.053,104.0,114.0,101.0,13.4,1505.3,323.9,-0.7,1.8,2470.215,13.31,0.027,46.5
2020-03-28T04:10:03,42.805,6.029,0.047,0.035,-0.013,105.0,113.0,103.0,13.3,1505.3,324.9,-0.7,1.9,2470.22,13.31,0.058,53.3
2020-03-28T04:13:03,42.805,6.029,0.022,0.014,-0.06,104.0,116.0,101.0,13.4,1505.3,324.4,-0.7,1.9,2470.202,13.32,0.026,57.5
2020-03-28T04:16:03,42.805,6.029,-0.01,0.011,-0.061,104.0,113.0,101.0,13.4,1505.3,326.7,-0.7,1.8,2470.232,13.32,0.014,317.7
2020-03-28T04:22:03,42.805,6.029,0.043,0.039,-0.015,105.0,114.0,102.0,13.4,1505.2,328.2,-0.7,1.8,2470.262,13.3,0.058,47.8
2020-03-28T04:25:03,42.805,6.029,0.021,0.033,0.0,103.0,114.0,102.0,13.3,1505.3,323.0,-0.7,1.8,2470.235,13.31,0.039,32.5
2020-03-28T04:28:03,42.805,6.029,0.05,0.026,-0.034,105.0,116.0,102.0,13.4,1505.3,327.2,-0.7,1.8,2470.237,13.31,0.056,62.5
2020-03-28T04:31:03,42.805,6.029,0.033,0.022,-0.022,106.0,115.0,101.0,13.3,1505.3,326.2,-0.7,1.8,2470.239,13.32,0.039,56.3
2020-03-28T04:34:03,42.805,6.029,0.018,0.02,-0.07,105.0,117.0,101.0,13.4,1505.3,328.3,-0.7,1.8,2470.205,13.32,0.026,42.0
2020-03-28T04:37:03,42.805,6.029,0.036,0.034,-0.019,105.0,115.0,101.0,13.3,1505.3,327.6,-0.7,1.8,2470.215,13.32,0.049,46.6
2020-03-28T04:40:03,42.805,6.029,0.049,0.033,-0.033,103.0,114.0,102.0,13.4,1505.3,327.4,-0.7,1.8,2470.229,13.32,0.059,56.0
2020-03-28T04:43:03,42.805,6.029,0.051,0.029,-0.005,105.0,113.0,103.0,13.4,1505.3,327.8,-0.7,1.8,2470.237,13.32,0.058,60.4
2020-03-28T04:46:03,42.805,6.029,0.039,0.015,-0.031,105.0,112.0,102.0,13.4,1505.3,325.4,-0.7,1.9,2470.233,13.32,0.041,69.0
2020-03-28T04:49:03,42.805,6.029,0.032,0.025,-0.07,105.0,114.0,101.0,13.4,1505.3,324.2,-0.7,1.8,2470.225,13.32,0.04,52.0
2020-03-28T04:52:03,42.805,6.029,0.013,0.016,-0.063,104.0,113.0,102.0,13.4,1505.3,328.6,-0.7,1.8,2470.194,13.32,0.02,39.1
2020-03-28T04:55:03,42.805,6.029,0.023,0.016,-0.041,106.0,116.0,101.0,13.4,1505.3,328.2,-0.7,1.8,2470.231,13.32,0.028,55.2
2020-03-28T04:58:03,42.805,6.029,0.04,0.02,-0.051,105.0,113.0,101.0,13.3,1505.3,324.3,-0.7,1.8,2470.224,13.32,0.044,63.4
2020-03-28T05:04:03,42.805,6.029,0.031,0.018,-0.022,103.0,113.0,102.0,13.4,1505.2,326.0,-0.8,1.8,2470.296,13.3,0.035,59.9
2020-03-28T05:07:03,42.805,6.029,0.01,0.016,-0.043,106.0,113.0,101.0,13.4,1505.3,327.2,-0.7,1.8,2470.24,13.31,0.018,32.0
2020-03-28T05:10:03,42.805,6.029,0.029,0.013,-0.042,105.0,114.0,102.0,13.4,1505.3,324.1,-0.7,1.8,2470.236,13.32,0.031,65.9
2020-03-28T05:13:03,42.805,6.029,0.039,0.023,-0.025,106.0,112.0,102.0,13.4,1505.3,323.3,-0.7,1.9,2470.241,13.32,0.045,59.5
2020-03-28T05:16:03,42.805,6.029,0.058,0.017,-0.035,104.0,113.0,101.0,13.4,1505.3,327.7,-0.7,1.8,2470.215,13.32,0.06,73.7
2020-03-28T05:19:03,42.805,6.029,0.053,0.022,-0.046,104.0,111.0,102.0,13.4,1505.3,324.7,-0.7,1.8,2470.222,13.32,0.057,67.5
2020-03-28T05:22:03,42.805,6.029,0.049,0.005,-0.057,104.0,112.0,102.0,13.4,1505.3,324.6,-0.7,1.8,2470.259,13.32,0.049,84.2
2020-03-28T05:25:03,42.805,6.029,0.043,0.026,-0.028,104.0,113.0,102.0,13.4,1505.3,323.5,-0.7,1.8,2470.213,13.32,0.05,58.8
2020-03-28T05:28:03,42.805,6.029,0.038,0.015,-0.013,105.0,114.0,102.0,13.3,1505.3,327.4,-0.7,1.8,2470.25,13.32,0.04,68.5
2020-03-28T05:31:03,42.805,6.029,0.037,0.014,-0.022,104.0,112.0,102.0,13.3,1505.3,325.3,-0.7,1.8,2470.242,13.32,0.039,69.3
2020-03-28T05:34:03,42.805,6.029,0.031,0.034,-0.013,104.0,112.0,102.0,13.4,1505.3,325.7,-0.7,1.8,2470.224,13.32,0.046,42.4
2020-03-28T05:37:03,42.805,6.029,0.04,0.017,-0.038,104.0,112.0,101.0,13.4,1505.3,324.5,-0.7,1.9,2470.23,13.32,0.043,67.0
2020-03-28T05:40:03,42.805,6.029,0.018,0.015,-0.024,105.0,112.0,103.0,13.4,1505.3,325.6,-0.7,1.8,2470.192,13.32,0.023,50.2
2020-03-28T05:43:03,42.805,6.029,0.037,0.04,-0.005,104.0,114.0,102.0,13.4,1505.3,326.2,-0.7,1.8,2470.259,13.32,0.054,42.8
2020-03-28T05:46:03,42.805,6.029,0.046,-0.016,-0.052,105.0,112.0,101.0,13.4,1505.3,326.9,-0.7,1.8,2470.223,13.32,0.048,109.2
2020-03-28T05:49:03,42.805,6.029,0.039,0.022,-0.029,104.0,112.0,102.0,13.3,1505.3,327.8,-0.7,1.9,2470.218,13.32,0.044,60.6
2020-03-28T05:52:03,42.805,6.029,0.032,0.028,-0.039,103.0,112.0,101.0,13.3,1505.3,323.4,-0.7,1.8,2470.253,13.32,0.042,48.8
2020-03-28T05:55:03,42.805,6.029,0.043,0.012,-0.016,103.0,112.0,102.0,13.4,1505.3,326.9,-0.7,1.8,2470.23,13.32,0.044,74.4
2020-03-28T05:58:03,42.805,6.029,0.032,0.025,-0.053,105.0,113.0,99.0,13.3,1505.3,326.0,-0.7,1.8,2470.191,13.32,0.04,52.0
2020-03-28T06:04:03,42.805,6.029,0.046,0.016,-0.032,104.0,110.0,102.0,13.3,1505.2,326.6,-0.8,1.8,2470.249,13.3,0.048,70.8
2020-03-28T06:07:03,42.805,6.029,0.043,0.008,-0.002,103.0,115.0,101.0,13.4,1505.3,326.8,-0.7,1.8,2470.275,13.31,0.043,79.5
2020-03-28T06:10:03,42.805,6.029,0.033,0.034,-0.017,103.0,114.0,103.0,13.3,1505.3,326.4,-0.7,1.8,2470.276,13.32,0.047,44.1
2020-03-28T06:13:03,42.805,6.029,0.03,0.036,0.004,104.0,111.0,102.0,13.4,1505.3,326.4,-0.7,1.9,2470.295,13.32,0.046,39.8
2020-03-28T06:16:03,42.805,6.029,0.02,0.006,-0.037,104.0,113.0,101.0,13.4,1505.3,327.2,-0.7,1.8,2470.286,13.32,0.02,73.3
2020-03-28T06:19:03,42.805,6.029,0.049,0.015,-0.036,104.0,113.0,101.0,13.4,1505.3,325.4,-0.7,1.8,2470.243,13.32,0.051,73.0
2020-03-28T06:22:03,42.805,6.029,0.022,0.017,-0.041,104.0,114.0,101.0,13.4,1505.3,324.6,-0.7,1.8,2470.241,13.32,0.027,52.3
2020-03-28T06:25:03,42.805,6.029,0.031,0.031,0.02,104.0,114.0,101.0,13.4,1505.3,324.9,-0.7,1.8,2470.301,13.32,0.043,45.0
2020-03-28T06:28:03,42.805,6.029,0.024,0.013,-0.029,104.0,112.0,103.0,13.4,1505.3,326.3,-0.7,1.8,2470.245,13.32,0.027,61.6
2020-03-28T06:31:03,42.805,6.029,0.031,0.015,-0.038,105.0,115.0,100.0,13.4,1505.3,325.9,-0.7,1.8,2470.306,13.32,0.034,64.2
2020-03-28T06:34:03,42.805,6.029,0.025,0.02,-0.048,105.0,112.0,102.0,13.4,1505.3,324.4,-0.7,1.8,2470.278,13.32,0.032,51.3
2020-03-28T06:37:03,42.805,6.029,0.032,0.015,-0.032,103.0,114.0,102.0,13.4,1505.3,323.8,-0.7,1.9,2470.278,13.32,0.035,64.9
2020-03-28T06:40:03,42.805,6.029,0.035,0.0,-0.035,105.0,112.0,101.0,13.4,1505.3,323.6,-0.7,1.8,2470.271,13.32,0.035,90.0
2020-03-28T06:43:03,42.805,6.029,0.046,0.023,-0.035,103.0,111.0,101.0,13.3,1505.3,323.5,-0.7,1.8,2470.311,13.32,0.051,63.4
2020-03-28T06:46:03,42.805,6.029,0.031,0.019,-0.039,105.0,112.0,102.0,13.3,1505.3,324.0,-0.7,1.8,2470.264,13.32,0.036,58.5
2020-03-28T06:49:03,42.805,6.029,0.018,0.02,-0.072,104.0,112.0,101.0,13.4,1505.3,323.4,-0.7,1.8,2470.263,13.32,0.026,42.0
2020-03-28T06:52:03,42.805,6.029,0.023,0.021,-0.035,104.0,112.0,102.0,13.4,1505.3,323.4,-0.7,1.8,2470.289,13.32,0.031,47.6
2020-03-28T06:55:03,42.805,6.029,0.031,0.014,-0.058,105.0,113.0,102.0,13.4,1505.3,327.8,-0.7,1.8,2470.324,13.32,0.034,65.7
2020-03-28T06:58:03,42.805,6.029,0.031,0.038,-0.034,105.0,113.0,103.0,13.4,1505.3,327.9,-0.7,1.8,2470.311,13.32,0.049,39.2
2020-03-28T07:04:03,42.805,6.029,0.042,0.018,-0.04,104.0,110.0,101.0,13.3,1505.2,323.7,-0.8,1.8,2470.37,13.3,0.045,66.8
2020-03-28T07:07:03,42.805,6.029,0.047,-0.002,-0.027,105.0,110.0,101.0,13.4,1505.3,327.5,-0.7,1.8,2470.334,13.31,0.047,92.4
2020-03-28T07:10:03,42.805,6.029,0.06,0.008,-0.025,104.0,110.0,101.0,13.4,1505.3,325.0,-0.7,1.8,2470.329,13.31,0.06,82.4
2020-03-28T07:13:03,42.805,6.029,0.061,0.005,-0.036,105.0,109.0,102.0,13.4,1505.3,323.4,-0.7,1.8,2470.321,13.32,0.061,85.3
2020-03-28T07:16:03,42.805,6.029,0.027,0.016,-0.06,104.0,111.0,100.0,13.3,1505.3,324.8,-0.7,1.9,2470.318,13.32,0.031,59.3
2020-03-28T07:19:03,42.805,6.029,0.051,0.004,-0.034,104.0,111.0,102.0,13.4,1505.3,323.8,-0.7,1.8,2470.308,13.32,0.051,85.5
2020-03-28T07:22:03,42.805,6.029,0.045,0.02,-0.036,105.0,109.0,101.0,13.3,1505.3,324.9,-0.7,1.8,2470.335,13.32,0.049,66.0
2020-03-28T07:25:03,42.805,6.029,0.019,0.003,-0.059,105.0,110.0,101.0,13.4,1505.3,323.9,-0.7,1.8,2470.372,13.32,0.019,81.0
2020-03-28T07:28:03,42.805,6.029,0.015,0.007,-0.055,104.0,108.0,102.0,13.4,1505.3,325.3,-0.7,1.8,2470.31,13.32,0.016,65.0
2020-03-28T07:31:03,42.805,6.029,0.049,0.002,-0.049,104.0,108.0,101.0,13.4,1505.3,328.1,-0.7,1.8,2470.284,13.32,0.049,87.7
2020-03-28T07:34:03,42.805,6.029,0.032,0.01,-0.021,104.0,109.0,100.0,13.4,1505.3,326.4,-0.7,1.9,2470.364,13.32,0.033,72.6
2020-03-28T07:37:03,42.805,6.029,0.027,0.032,-0.048,104.0,111.0,101.0,13.4,1505.3,325.1,-0.7,1.9,2470.342,13.32,0.041,40.2
2020-03-28T07:40:03,42.805,6.029,0.025,0.002,-0.042,105.0,109.0,102.0,13.4,1505.3,323.1,-0.7,1.9,2470.323,13.32,0.025,85.4
2020-03-28T07:43:03,42.805,6.029,0.017,0.001,-0.057,105.0,110.0,102.0,13.4,1505.3,325.7,-0.7,1.8,2470.341,13.32,0.017,86.6
2020-03-28T07:46:03,42.805,6.029,0.016,0.006,-0.073,105.0,109.0,101.0,13.4,1505.3,324.2,-0.7,1.8,2470.347,13.32,0.017,69.4
2020-03-28T07:49:03,42.805,6.029,0.028,0.001,-0.025,104.0,111.0,102.0,13.4,1505.3,324.2,-0.7,1.8,2470.32,13.32,0.028,88.0
2020-03-28T07:52:03,42.805,6.029,0.029,0.007,-0.053,103.0,109.0,102.0,13.3,1505.3,325.3,-0.7,1.8,2470.36,13.32,0.029,76.4
2020-03-28T07:55:03,42.805,6.029,0.034,0.0,-0.06,103.0,109.0,101.0,13.4,1505.3,326.3,-0.7,1.9,2470.364,13.32,0.034,90.0
2020-03-28T07:58:03,42.805,6.029,0.007,-0.008,-0.034,105.0,109.0,101.0,13.4,1505.3,323.0,-0.7,1.8,2470.395,13.32,0.01,138.8
2020-03-28T08:04:03,42.805,6.029,0.019,0.01,-0.029,104.0,108.0,100.0,13.4,1505.2,325.8,-0.8,1.8,2470.388,13.3,0.021,62.2
2020-03-28T08:07:03,42.805,6.029,0.034,0.013,-0.033,104.0,109.0,100.0,13.4,1505.3,324.5,-0.8,1.8,2470.347,13.31,0.036,69.1
2020-03-28T08:10:03,42.805,6.029,0.032,0.025,-0.028,104.0,108.0,101.0,13.4,1505.3,324.9,-0.7,1.8,2470.357,13.32,0.04,52.0
2020-03-28T08:13:03,42.805,6.029,0.018,0.005,-0.033,103.0,108.0,101.0,13.3,1505.3,323.8,-0.7,1.8,2470.329,13.32,0.018,74.5
2020-03-28T08:16:03,42.805,6.029,0.031,0.017,-0.05,102.0,109.0,99.0,13.3,1505.3,327.3,-0.7,1.8,2470.404,13.32,0.035,61.3
2020-03-28T08:19:03,42.805,6.029,0.024,0.014,-0.043,103.0,110.0,101.0,13.3,1505.3,327.3,-0.7,1.8,2470.38,13.32,0.027,59.7
2020-03-28T08:22:03,42.805,6.029,0.036,0.016,-0.029,104.0,111.0,100.0,13.3,1505.3,326.9,-0.7,1.8,2470.388,13.32,0.039,66.0
2020-03-28T08:25:03,42.805,6.029,0.022,-0.001,-0.064,104.0,111.0,101.0,13.4,1505.3,326.4,-0.7,1.8,2470.386,13.32,0.022,92.6
2020-03-28T08:28:03,42.805,6.029,0.038,-0.001,-0.052,105.0,109.0,99.0,13.4,1505.3,326.3,-0.7,1.8,2470.401,13.32,0.038,91.5
2020-03-28T08:31:03,42.805,6.029,0.028,0.012,-0.053,103.0,107.0,101.0,13.4,1505.3,323.3,-0.7,1.9,2470.354,13.32,0.03,66.8
2020-03-28T08:34:03,42.805,6.029,0.026,0.0,-0.063,103.0,107.0,101.0,13.4,1505.3,324.8,-0.7,1.9,2470.352,13.32,0.026,90.0
2020-03-28T08:37:03,42.805,6.029,0.019,0.012,-0.038,103.0,110.0,101.0,13.4,1505.3,324.3,-0.7,1.8,2470.364,13.32,0.022,57.7
2020-03-28T08:40:03,42.805,6.029,0.038,0.006,-0.022,103.0,109.0,101.0,13.4,1505.3,327.3,-0.7,1.8,2470.368,13.32,0.038,81.0
2020-03-28T08:43:03,42.805,6.029,0.025,0.018,-0.05,103.0,107.0,101.0,13.4,1505.3,326.5,-0.7,1.8,2470.374,13.33,0.03,54.2
2020-03-28T08:46:03,42.805,6.029,0.031,0.018,-0.028,102.0,107.0,100.0,13.4,1505.3,324.0,-0.7,1.8,2470.361,13.33,0.035,59.9
2020-03-28T08:49:03,42.805,6.029,0.023,0.007,-0.025,103.0,108.0,101.0,13.4,1505.3,324.0,-0.7,1.8,2470.375,13.33,0.024,73.1
2020-03-28T08:52:03,42.805,6.029,0.043,0.015,-0.02,104.0,108.0,101.0,13.4,1505.3,326.7,-0.7,1.8,2470.401,13.33,0.045,70.8
2020-03-28T08:55:03,42.805,6.029,0.025,0.025,-0.01,104.0,110.0,101.0,13.3,1505.3,324.5,-0.7,1.8,2470.384,13.33,0.035,45.0
2020-03-28T08:58:03,42.805,6.029,0.037,0.001,-0.037,102.0,110.0,102.0,13.3,1505.3,322.9,-0.8,1.8,2470.386,13.33,0.037,88.5
2020-03-28T09:04:03,42.805,6.029,0.04,0.005,-0.035,104.0,110.0,100.0,13.4,1505.3,323.5,-0.7,1.8,2470.428,13.31,0.04,82.9
2020-03-28T09:07:03,42.805,6.029,0.041,-0.004,-0.052,103.0,109.0,102.0,13.4,1505.3,324.3,-0.7,1.8,2470.435,13.31,0.041,95.6
2020-03-28T09:10:03,42.805,6.029,0.037,0.001,-0.05,104.0,110.0,100.0,13.4,1505.3,323.8,-0.7,1.8,2470.417,13.32,0.037,88.5
2020-03-28T09:13:03,42.805,6.029,0.006,0.006,-0.027,104.0,108.0,101.0,13.3,1505.3,323.6,-0.7,1.9,2470.416,13.32,0.008,45.0
2020-03-28T09:16:03,42.805,6.029,0.006,-0.004,-0.021,103.0,107.0,100.0,13.4,1505.3,326.8,-0.7,1.8,2470.397,13.32,0.007,123.7
2020-03-28T09:19:03,42.805,6.029,0.035,0.016,-0.059,102.0,109.0,101.0,13.4,1505.3,324.3,-0.7,1.8,2470.372,13.32,0.038,65.4
2020-03-28T09:22:03,42.805,6.029,0.022,0.032,-0.013,103.0,106.0,101.0,13.3,1505.3,325.4,-0.7,1.8,2470.36,13.32,0.038,34.5
2020-03-28T09:25:03,42.805,6.029,0.036,0.022,-0.059,104.0,106.0,100.0,13.4,1505.3,324.1,-0.7,1.8,2470.394,13.32,0.042,58.6
2020-03-28T09:28:03,42.805,6.029,0.017,0.007,-0.026,103.0,109.0,101.0,13.4,1505.3,324.5,-0.7,1.8,2470.4,13.33,0.018,67.6
2020-03-28T09:31:03,42.805,6.029,0.041,0.008,-0.014,103.0,112.0,101.0,13.4,1505.3,324.6,-0.7,1.9,2470.371,13.33,0.041,79.0
2020-03-28T09:34:03,42.805,6.029,0.03,0.01,-0.061,104.0,108.0,101.0,13.4,1505.3,324.5,-0.7,1.8,2470.392,13.33,0.031,71.6
2020-03-28T09:37:03,42.805,6.029,0.025,0.021,-0.036,102.0,113.0,100.0,13.4,1505.3,324.4,-0.7,1.8,2470.369,13.33,0.032,50.0
2020-03-28T09:40:03,42.805,6.029,0.008,0.002,-0.034,103.0,110.0,100.0,13.3,1505.3,327.2,-0.8,1.8,2470.36,13.33,0.008,76.0
2020-03-28T09:43:03,42.805,6.029,0.014,0.022,-0.045,103.0,113.0,99.0,13.4,1505.3,325.1,-0.7,1.8,2470.39,13.33,0.026,32.5
2020-03-28T09:46:03,42.805,6.029,0.038,0.01,-0.038,103.0,110.0,102.0,13.4,1505.3,326.1,-0.7,1.9,2470.35,13.33,0.039,75.3
2020-03-28T09:49:03,42.805,6.029,0.029,0.028,-0.059,103.0,111.0,100.0,13.4,1505.3,327.2,-0.7,1.8,2470.371,13.33,0.04,46.0
2020-03-28T09:52:03,42.805,6.029,0.022,0.004,-0.014,103.0,109.0,100.0,13.4,1505.3,325.7,-0.7,1.8,2470.362,13.33,0.022,79.7
2020-03-28T09:55:03,42.805,6.029,0.004,0.006,-0.07,104.0,109.0,101.0,13.4,1505.3,325.5,-0.7,1.8,2470.406,13.33,0.007,33.7
2020-03-28T09:58:03,42.805,6.029,0.025,0.004,-0.04,102.0,109.0,100.0,13.4,1505.3,323.0,-0.7,1.8,2470.428,13.33,0.025,80.9
2020-03-28T10:04:03,42.805,6.029,0.003,0.034,-0.05,104.0,112.0,99.0,13.4,1505.3,324.9,-0.7,1.8,2470.389,13.31,0.034,5.0
2020-03-28T10:07:03,42.805,6.029,0.025,0.012,-0.048,102.0,111.0,100.0,13.4,1505.3,326.5,-0.7,1.8,2470.405,13.31,0.027,64.4
2020-03-28T10:10:03,42.805,6.029,0.037,0.031,-0.037,102.0,109.0,102.0,13.4,1505.3,328.0,-0.7,1.8,2470.398,13.32,0.048,50.0
2020-03-28T10:13:03,42.805,6.029,0.028,0.03,-0.05,103.0,109.0,100.0,13.4,1505.3,326.7,-0.7,1.8,2470.401,13.32,0.041,43.0
2020-03-28T10:16:03,42.805,6.029,0.005,0.035,-0.069,102.0,109.0,100.0,13.4,1505.3,325.7,-0.7,1.8,2470.379,13.32,0.035,8.1